This demonstration page uses our WeatherBlox Daily Observations layout. Learn more.

Hourly Observations for March 17, 2020

Temp ( °F °C ) Dew Point ( °F °C ) Humidity (%) Winds ( mph kmh ) Pressure ( in mb ) Visibility ( mi km ) Precip ( " mm )
12:15 am 00:15 Cloudy 36 2.1 34 1 93 93 NNE 7 11 30.37 1028 10 16.0934 0 0
12:35 am 00:35 Cloudy 36 2 33 0.8 92 92 NNE 8 13 30.37 1028 10 16.0934 0 0
12:55 am 00:55 Cloudy 36 2 33 0.6 91 91 NNE 8 13 30.37 1028 10 16.0934 0 0
1:15 am 01:15 Cloudy 35 1.8 33 0.6 92 92 NNE 7 11 30.37 1028 10 16.0934 0 0
1:35 am 01:35 Cloudy 35 1.8 33 0.5 91 91 NE 6 9 30.36 1028 10 16.0934 0 0
1:55 am 01:55 Cloudy 35 1.7 33 0.5 92 92 NE 7 11 30.36 1028 10 16.0934 0 0
2:15 am 02:15 Cloudy 35 1.7 33 0.5 92 92 NNE 5 7 30.38 1029 10 16.0934 0 0
2:35 am 02:35 Cloudy 35 1.7 33 0.6 93 93 NNE 7 11 30.38 1029 7 11.26538 0 0
2:55 am 02:55 Cloudy with Mist and Fog 35 1.5 33 0.6 94 94 NNE 6 9 30.38 1029 5 8.0467 0 0
3:15 am 03:15 Cloudy 35 1.5 33 0.5 93 93 NNE 5 7 30.38 1029 7 11.26538 0 0
3:35 am 03:35 Cloudy 34 1.3 33 0.3 93 93 NNE 3 6 30.38 1029 7 11.26538 0 0
3:55 am 03:55 Cloudy with Mist and Fog 34 1.3 33 0.3 93 93 Calm 30.38 1029 5 8.0467 0 0
4:15 am 04:15 Cloudy 34 1.3 33 0.3 93 93 Calm 30.37 1029 7 11.26538 0 0
4:35 am 04:35 Cloudy 34 1.2 32 0.2 93 93 NE 5 7 30.35 1028 7 11.26538 0 0
4:55 am 04:55 Cloudy with Mist and Fog 34 1.1 32 0.1 93 93 NE 3 6 30.35 1028 5 8.0467 0 0
5:15 am 05:15 Cloudy 34 1.1 32 0.2 94 94 NNE 3 6 30.36 1028 7 11.26538 0 0
5:35 am 05:35 Cloudy 34 1.1 32 0.1 93 93 NNE 3 6 30.36 1028 7 11.26538 0 0
5:55 am 05:55 Cloudy 34 1.1 32 0.1 93 93 Calm 30.37 1028 7 11.26538 0 0
6:15 am 06:15 Cloudy 34 1.2 32 0.2 93 93 Calm 30.36 1028 7 11.26538 0 0
6:35 am 06:35 Cloudy 34 1.2 32 0.2 93 93 Calm 30.36 1028 7 11.26538 0 0
6:55 am 06:55 Cloudy with Mist and Fog 34 1.2 33 0.3 94 94 Calm 30.36 1028 5 8.0467 0 0
7:15 am 07:15 Cloudy with Mist and Fog 34 1.2 33 0.5 95 95 Calm 30.35 1028 5 8.0467 0 0
7:35 am 07:35 Cloudy with Mist and Fog 34 1.2 33 0.5 95 95 SE 5 7 30.34 1028 5 8.0467 0 0
7:55 am 07:55 Cloudy with Mist and Fog 34 1.2 33 0.5 95 95 ESE 6 9 30.33 1027 5 8.0467 0 0
8:15 am 08:15 Cloudy with Mist and Fog 34 1.2 33 0.5 95 95 ESE 8 13 30.33 1027 4 6.43736 0 0
8:35 am 08:35 Cloudy with Mist and Fog 34 1.2 33 0.5 95 95 E 9 15 30.31 1027 4 6.43736 0 0
8:55 am 08:55 Cloudy with Mist and Fog 35 1.5 33 0.6 94 94 SE 8 13 30.34 1027 5 8.0467 0 0
9:15 am 09:15 Cloudy 35 1.4 32 0.2 92 92 SE 8 13 30.34 1028 7 11.26538 0 0
9:35 am 09:35 Cloudy with Mist and Fog 34 1.3 33 0.4 94 94 SE 9 15 30.33 1027 3 4.82802 0 0
9:55 am 09:55 Cloudy with Mist and Fog 35 1.5 33 0.7 94 94 SE 9 15 30.34 1027 2 3.21868 0 0
10:15 am 10:15 Cloudy with Mist and Fog 35 1.5 34 1 97 97 SE 8 13 30.33 1027 2.5 4.02335 0 0
10:35 am 10:35 Cloudy with Mist and Fog 34 1.3 33 0.7 96 96 SE 9 15 30.33 1027 2.5 4.02335 0 0
10:55 am 10:55 Cloudy with Mist and Fog 35 1.6 34 1 96 96 SE 12 19 30.32 1027 4 6.43736 0 0
11:15 am 11:15 Cloudy 35 1.8 33 0.7 93 93 SE 12 19 30.31 1026 7 11.26538 0 0
11:35 am 11:35 Cloudy 36 2 33 0.4 89 89 SE 12 19 30.3 1026 10 16.0934 0 0
11:55 am 11:55 Cloudy 37 2.7 33 0.8 87 87 SE 13 20 30.28 1025 10 16.0934 0 0
12:15 pm 12:15 Cloudy 38 3.2 34 1 86 86 SE 10 17 30.27 1025 10 16.0934 0 0
12:35 pm 12:35 Cloudy 37 2.9 33 0.8 86 86 SSE 10 17 30.27 1025 10 16.0934 0 0
12:55 pm 12:55 Cloudy 37 3 34 1.1 87 87 SSE 10 17 30.27 1025 10 16.0934 0 0
1:15 pm 13:15 Cloudy 38 3.2 34 1.1 86 86 S 10 17 30.27 1025 10 16.0934 0 0
1:35 pm 13:35 Cloudy 38 3.2 35 1.4 88 88 S 13 20 30.24 1024 10 16.0934 0 0
1:55 pm 13:55 Cloudy 38 3.3 35 1.6 89 89 S 12 19 30.22 1024 10 16.0934 0 0
2:15 pm 14:15 Cloudy with Light Rain 38 3.5 36 2 90 90 S 12 19 30.2 1023 7 11.26538 0 0
2:35 pm 14:35 Cloudy 38 3.6 36 2.2 91 91 SSE 10 17 30.19 1022 7 11.26538 0 0
2:55 pm 14:55 Cloudy 38 3.6 36 2.1 90 90 S 10 17 30.18 1022 10 16.0934 0 0
3:15 pm 15:15 Cloudy 38 3.5 35 1.7 88 88 SSE 12 19 30.16 1021 10 16.0934 0 0
3:35 pm 15:35 Cloudy 38 3.5 35 1.5 87 87 SSE 12 19 30.16 1021 10 16.0934 0 0
3:55 pm 15:55 Cloudy 38 3.6 35 1.9 89 89 SSE 12 19 30.15 1021 10 16.0934 0 0
4:15 pm 16:15 Cloudy with Light Drizzle 38 3.5 35 1.7 88 88 SSE 10 17 30.14 1021 7 11.26538 0 0
4:35 pm 16:35 Cloudy 38 3.5 36 2.1 91 91 SSE 8 13 30.13 1020 10 16.0934 0 0
4:55 pm 16:55 Cloudy 38 3.5 36 2.2 91 91 SSE 8 13 30.13 1020 10 16.0934 0 0
5:15 pm 17:15 Cloudy 38 3.6 36 2.3 91 91 SSE 9 15 30.12 1020 10 16.0934 0 0
5:35 pm 17:35 Cloudy with Mist and Fog 38 3.6 36 2.3 91 91 SSE 9 15 30.11 1020 5 8.0467 0 0
5:55 pm 17:55 Cloudy with Mist and Fog 38 3.5 37 2.5 93 93 SSE 9 15 30.1 1019 2 3.21868 0 0
6:15 pm 18:15 Cloudy with Light Drizzle 38 3.5 37 2.8 95 95 SE 9 15 30.09 1019 4 6.43736 0 0
6:35 pm 18:35 Cloudy with Mist and Fog 38 3.5 37 3 97 97 SSE 10 17 30.09 1019 3 4.82802 0 0
6:55 pm 18:55 Cloudy with Mist and Fog 38 3.6 37 3 96 96 SSE 8 13 30.08 1019 1.5 2.41401 0 0
7:15 pm 19:15 Cloudy with Mist and Fog 38 3.6 37 3 96 96 SSE 10 17 30.08 1019 2 3.21868 0 0
7:35 pm 19:35 Cloudy with Mist and Fog 39 3.7 38 3.2 97 97 SSE 9 15 30.07 1018 4 6.43736 0 0
7:55 pm 19:55 Cloudy with Mist and Fog 39 3.7 38 3.2 97 97 SSE 7 11 30.07 1018 3 4.82802 0 0
8:15 pm 20:15 Cloudy with Mist and Fog 39 3.7 38 3.2 97 97 SSE 8 13 30.06 1018 3 4.82802 0 0
8:35 pm 20:35 Cloudy with Mist and Fog 39 3.7 38 3.2 97 97 SSE 7 11 30.06 1018 3 4.82802 0 0
8:55 pm 20:55 Cloudy with Mist and Fog 39 3.7 38 3.2 97 97 SSE 6 9 30.06 1018 4 6.43736 0 0
9:15 pm 21:15 Cloudy with Mist and Fog 39 3.7 38 3.3 97 97 SE 7 11 30.05 1018 3 4.82802 0 0
9:35 pm 21:35 Cloudy with Mist and Fog 39 3.8 38 3.5 98 98 SE 7 11 30.05 1018 2.5 4.02335 0 0
9:55 pm 21:55 Cloudy with Mist and Fog 39 4 38 3.5 97 97 SSE 5 7 30.06 1018 2.5 4.02335 0 0
10:15 pm 22:15 Cloudy with Mist and Fog 39 4 38 3.5 97 97 SSE 6 9 30.05 1018 2 3.21868 0 0
10:35 pm 22:35 Cloudy with Mist and Fog 39 4 38 3.6 97 97 SSE 6 9 30.04 1017 1.75 2.816345 0 0
10:55 pm 22:55 Cloudy with Mist and Fog 39 4 38 3.6 97 97 SSE 8 13 30.04 1017 1.5 2.41401 0 0
11:15 pm 23:15 Cloudy with Light Rain 40 4.2 39 3.8 97 97 SSE 7 11 30.03 1017 1.5 2.41401 0 0
11:35 pm 23:35 Cloudy with Mist and Fog 40 4.5 39 4 97 97 SE 7 11 30.02 1017 1.25 2.011675 0 0
11:55 pm 23:55 Cloudy with Mist and Fog 40 4.6 40 4.2 97 97 SSE 7 11 30.01 1016 1 1.60934 0 0

Powered by AerisWeather